When you browse on this site, cookies collect data to enhance your experience and personalize the content and advertising you see.
Visit our Privacy Policy to learn more. By continuing to use the site, you agree to this use of cookies and data.

Stündliche Wetter Gnesichi

Heute, 12 Juli, Sonntag

Zeit Temperatur Niederschläge Wind Luftdruck Luftfeuchtigkeit
00:00 +13°C° 0 mm 3 m/S 752 mmHg 81%
01:00 +13°C° 0 mm 3 m/S 753 mmHg 83%
02:00 +14°C° 0 mm 2 m/S 753 mmHg 90%
03:00 +13°C° 0.9 mm 2 m/S 753 mmHg 92%
04:00 +13°C° 0.9 mm 2 m/S 753 mmHg 94%
05:00 +12°C° 0.9 mm 2 m/S 752 mmHg 96%
06:00 +13°C° 0.3 mm 2 m/S 753 mmHg 94%
07:00 +13°C° 0.3 mm 2 m/S 753 mmHg 93%
08:00 +13°C° 0 mm 3 m/S 753 mmHg 91%
09:00 +13°C° 0.1 mm 3 m/S 753 mmHg 87%
10:00 +14°C° 0.1 mm 3 m/S 753 mmHg 84%
11:00 +14°C° 0.1 mm 3 m/S 753 mmHg 80%
12:00 +16°C° 0.1 mm 3 m/S 753 mmHg 75%
13:00 +17°C° 0.1 mm 3 m/S 753 mmHg 71%
14:00 +18°C° 0.1 mm 3 m/S 753 mmHg 66%
15:00 +18°C° 0 mm 3 m/S 753 mmHg 66%
16:00 +18°C° 0 mm 3 m/S 753 mmHg 67%
17:00 +18°C° 0 mm 3 m/S 752 mmHg 67%
18:00 +17°C° 0 mm 3 m/S 752 mmHg 74%
19:00 +16°C° 0 mm 2 m/S 752 mmHg 80%
20:00 +15°C° 0 mm 2 m/S 752 mmHg 87%
21:00 +14°C° 0 mm 2 m/S 752 mmHg 89%
22:00 +13°C° 0 mm 2 m/S 752 mmHg 92%
23:00 +11°C° 0 mm 3 m/S 752 mmHg 94%

Morgen, 13 Juli, Montag

Zeit Temperatur Niederschläge Wind Luftdruck Luftfeuchtigkeit
00:00 +10°C° 0 mm 3 m/S 753 mmHg 95%
01:00 +10°C° 0 mm 3 m/S 753 mmHg 95%
02:00 +9°C° 0 mm 3 m/S 753 mmHg 96%
03:00 +9°C° 0 mm 3 m/S 753 mmHg 96%
04:00 +8°C° 0 mm 3 m/S 752 mmHg 96%
05:00 +8°C° 0 mm 3 m/S 752 mmHg 97%
06:00 +10°C° 0 mm 3 m/S 752 mmHg 91%
07:00 +11°C° 0 mm 3 m/S 752 mmHg 85%
08:00 +13°C° 0 mm 3 m/S 752 mmHg 80%
09:00 +14°C° 0 mm 4 m/S 752 mmHg 74%
10:00 +17°C° 0 mm 4 m/S 752 mmHg 68%
11:00 +18°C° 0 mm 4 m/S 751 mmHg 62%
12:00 +18°C° 0 mm 4 m/S 751 mmHg 60%
13:00 +19°C° 0 mm 3 m/S 751 mmHg 59%
14:00 +20°C° 0 mm 3 m/S 751 mmHg 57%
15:00 +20°C° 0 mm 3 m/S 750 mmHg 58%
16:00 +20°C° 0 mm 3 m/S 750 mmHg 60%
17:00 +20°C° 0 mm 3 m/S 750 mmHg 61%
18:00 +18°C° 0 mm 3 m/S 750 mmHg 67%
19:00 +17°C° 0 mm 2 m/S 750 mmHg 74%
20:00 +15°C° 0 mm 2 m/S 750 mmHg 80%
21:00 +14°C° 0 mm 2 m/S 750 mmHg 83%
22:00 +13°C° 0 mm 2 m/S 750 mmHg 87%
23:00 +12°C° 0 mm 2 m/S 750 mmHg 90%

übermorgen, 14 Juli, Dienstag

Zeit Temperatur Niederschläge Wind Luftdruck Luftfeuchtigkeit
00:00 +12°C° 0 mm 2 m/S 750 mmHg 92%
01:00 +12°C° 0 mm 2 m/S 750 mmHg 94%
02:00 +10°C° 0 mm 2 m/S 750 mmHg 96%
03:00 +10°C° 0 mm 2 m/S 750 mmHg 96%
04:00 +10°C° 0 mm 2 m/S 750 mmHg 97%
05:00 +10°C° 0 mm 2 m/S 749 mmHg 98%
06:00 +13°C° 0 mm 2 m/S 750 mmHg 93%
07:00 +14°C° 0 mm 2 m/S 750 mmHg 88%
08:00 +16°C° 0 mm 2 m/S 750 mmHg 83%
09:00 +17°C° 0 mm 2 m/S 750 mmHg 77%
10:00 +19°C° 0 mm 3 m/S 749 mmHg 72%
11:00 +20°C° 0 mm 3 m/S 749 mmHg 67%
12:00 +20°C° 0.3 mm 3 m/S 749 mmHg 67%
13:00 +20°C° 0.3 mm 3 m/S 749 mmHg 68%
14:00 +21°C° 0.3 mm 3 m/S 749 mmHg 68%
15:00 +21°C° 0.2 mm 3 m/S 748 mmHg 69%
16:00 +21°C° 0.2 mm 3 m/S 748 mmHg 69%
17:00 +21°C° 0.2 mm 2 m/S 748 mmHg 70%
18:00 +19°C° 0.2 mm 2 m/S 748 mmHg 76%
19:00 +18°C° 0.2 mm 2 m/S 748 mmHg 82%
20:00 +17°C° 0.2 mm 2 m/S 748 mmHg 87%
21:00 +16°C° 0 mm 2 m/S 748 mmHg 89%
22:00 +15°C° 0 mm 2 m/S 748 mmHg 91%
23:00 +14°C° 0 mm 2 m/S 748 mmHg 93%

15 Juli, Mittwoch

Zeit Temperatur Niederschläge Wind Luftdruck Luftfeuchtigkeit
00:00 +13°C° 0 mm 2 m/S 748 mmHg 93%
01:00 +13°C° 0 mm 2 m/S 748 mmHg 94%
02:00 +12°C° 0 mm 2 m/S 748 mmHg 94%
03:00 +12°C° 0 mm 2 m/S 748 mmHg 94%
04:00 +12°C° 0 mm 2 m/S 748 mmHg 95%
05:00 +12°C° 0 mm 2 m/S 748 mmHg 95%
06:00 +14°C° 0 mm 2 m/S 748 mmHg 90%
07:00 +15°C° 0 mm 2 m/S 748 mmHg 85%
08:00 +17°C° 0 mm 2 m/S 748 mmHg 80%
09:00 +19°C° 0.1 mm 2 m/S 748 mmHg 74%
10:00 +20°C° 0.1 mm 2 m/S 748 mmHg 69%
11:00 +21°C° 0.1 mm 2 m/S 748 mmHg 63%
12:00 +23°C° 0.1 mm 2 m/S 748 mmHg 60%
13:00 +23°C° 0.1 mm 2 m/S 748 mmHg 57%
14:00 +24°C° 0.1 mm 2 m/S 747 mmHg 54%
15:00 +24°C° 0.1 mm 2 m/S 747 mmHg 57%
16:00 +23°C° 0.1 mm 2 m/S 747 mmHg 60%
17:00 +23°C° 0.1 mm 2 m/S 747 mmHg 63%
18:00 +22°C° 0.1 mm 1 m/S 747 mmHg 70%
19:00 +20°C° 0.1 mm 1 m/S 747 mmHg 76%
20:00 +17°C° 0.1 mm 0 m/S 747 mmHg 83%
21:00 +16°C° 0 mm 0 m/S 747 mmHg 85%
22:00 +15°C° 0 mm 0 m/S 747 mmHg 86%
23:00 +14°C° 0 mm 0 m/S 747 mmHg 88%

16 Juli, Donnerstag

Zeit Temperatur Niederschläge Wind Luftdruck Luftfeuchtigkeit
00:00 +13°C° 0 mm 0 m/S 747 mmHg 89%
01:00 +13°C° 0 mm 0 m/S 747 mmHg 89%
02:00 +14°C° 0 mm 1 m/S 747 mmHg 90%
03:00 +14°C° 0 mm 1 m/S 747 mmHg 90%
04:00 +14°C° 0 mm 1 m/S 747 mmHg 91%
05:00 +12°C° 0 mm 0 m/S 746 mmHg 91%
06:00 +15°C° 0 mm 1 m/S 746 mmHg 86%
07:00 +18°C° 0 mm 1 m/S 746 mmHg 82%
08:00 +20°C° 0 mm 1 m/S 746 mmHg 77%
09:00 +22°C° 0.1 mm 1 m/S 746 mmHg 71%
10:00 +23°C° 0.1 mm 1 m/S 746 mmHg 66%
11:00 +24°C° 0.1 mm 2 m/S 745 mmHg 60%
12:00 +25°C° 0.1 mm 2 m/S 745 mmHg 58%
13:00 +25°C° 0.1 mm 2 m/S 745 mmHg 57%
14:00 +25°C° 0.1 mm 2 m/S 745 mmHg 56%
15:00 +25°C° 0.5 mm 2 m/S 745 mmHg 62%
16:00 +24°C° 0.5 mm 2 m/S 745 mmHg 67%
17:00 +24°C° 0.5 mm 2 m/S 744 mmHg 73%
18:00 +21°C° 0.7 mm 2 m/S 744 mmHg 80%
19:00 +19°C° 0.7 mm 2 m/S 744 mmHg 87%
20:00 +17°C° 0.7 mm 3 m/S 745 mmHg 94%
21:00 +17°C° 0.4 mm 2 m/S 745 mmHg 95%
22:00 +16°C° 0.4 mm 2 m/S 745 mmHg 97%
23:00 +16°C° 0.4 mm 1 m/S 745 mmHg 98%

17 Juli, Freitag

Zeit Temperatur Niederschläge Wind Luftdruck Luftfeuchtigkeit
00:00 +16°C° 0.2 mm 1 m/S 745 mmHg 98%
01:00 +16°C° 0.2 mm 1 m/S 744 mmHg 98%
02:00 +16°C° 0.2 mm 1 m/S 744 mmHg 98%
03:00 +16°C° 0.4 mm 1 m/S 744 mmHg 98%
04:00 +16°C° 0.4 mm 1 m/S 744 mmHg 98%
05:00 +16°C° 0.4 mm 1 m/S 744 mmHg 98%
06:00 +15°C° 3.6 mm 2 m/S 744 mmHg 98%
07:00 +15°C° 3.6 mm 2 m/S 744 mmHg 98%
08:00 +15°C° 3.6 mm 2 m/S 744 mmHg 98%
09:00 +14°C° 3.4 mm 3 m/S 744 mmHg 98%
10:00 +14°C° 3.4 mm 3 m/S 744 mmHg 97%
11:00 +14°C° 3.4 mm 3 m/S 744 mmHg 96%
12:00 +14°C° 0.6 mm 3 m/S 744 mmHg 95%
13:00 +16°C° 0.6 mm 2 m/S 744 mmHg 93%
14:00 +16°C° 0.6 mm 2 m/S 744 mmHg 92%
15:00 +16°C° 0.2 mm 2 m/S 744 mmHg 91%
16:00 +16°C° 0.2 mm 2 m/S 744 mmHg 90%
17:00 +17°C° 0.2 mm 3 m/S 744 mmHg 89%
18:00 +16°C° 0.2 mm 3 m/S 744 mmHg 91%
19:00 +16°C° 0.2 mm 3 m/S 744 mmHg 93%
20:00 +14°C° 0.2 mm 3 m/S 745 mmHg 95%
21:00 +14°C° 0 mm 3 m/S 745 mmHg 96%
22:00 +14°C° 0 mm 3 m/S 745 mmHg 96%
23:00 +13°C° 0 mm 3 m/S 745 mmHg 97%
Mehr zeigen